Time,TemperatureF,DewpointF,PressureIn,WindDirection,WindDirectionDegrees,WindSpeedMPH,WindSpeedGustMPH,Humidity,HourlyPrecipIn,Conditions,Clouds,dailyrainin,SoftwareType,DateUTC
2013-03-08 00:00:00,33.1,11.4,30.26,ESE,106,0.0,2.2,40,0.00,,,0.00,VWS V14.00,2013-03-08 05:00:00,
2013-03-08 00:01:00,33.1,11.4,30.26,East,99,0.0,0.0,40,0.00,,,0.00,VWS V14.00,2013-03-08 05:01:00,
2013-03-08 00:06:00,33.1,11.4,30.23,East,99,0.0,0.0,40,0.00,,,0.00,VWS V14.00,2013-03-08 05:06:00,
2013-03-08 00:11:00,32.9,11.2,30.23,East,95,0.0,0.0,40,0.00,,,0.00,VWS V14.00,2013-03-08 05:11:00,
2013-03-08 00:16:00,32.9,11.2,30.23,ESE,106,0.0,0.0,40,0.00,,,0.00,VWS V14.00,2013-03-08 05:16:00,
2013-03-08 00:21:00,33.1,11.4,30.23,East,101,0.0,0.0,40,0.00,,,0.00,VWS V14.00,2013-03-08 05:21:00,
2013-03-08 00:26:00,33.1,12.0,30.23,East,84,0.0,0.0,41,0.00,,,0.00,VWS V14.00,2013-03-08 05:26:00,
2013-03-08 00:31:00,33.3,12.1,30.23,ESE,122,0.0,0.0,41,0.00,,,0.00,VWS V14.00,2013-03-08 05:31:00,
2013-03-08 00:36:00,33.6,11.9,30.26,SE,145,0.0,0.0,40,0.00,,,0.00,VWS V14.00,2013-03-08 05:36:00,
2013-03-08 00:41:00,33.6,11.9,30.26,ESE,113,2.2,2.7,40,0.00,,,0.00,VWS V14.00,2013-03-08 05:41:00,
2013-03-08 00:47:00,33.6,12.4,30.26,East,93,0.0,0.0,41,0.00,,,0.00,VWS V14.00,2013-03-08 05:47:00,
2013-03-08 00:51:00,33.6,12.4,30.23,ESE,108,0.0,0.0,41,0.00,,,0.00,VWS V14.00,2013-03-08 05:51:00,
2013-03-08 00:57:00,33.8,12.1,30.23,SE,145,0.0,0.0,40,0.00,,,0.00,VWS V14.00,2013-03-08 05:57:00,
2013-03-08 01:02:00,33.8,12.1,30.23,East,99,0.0,0.0,40,0.00,,,0.00,VWS V14.00,2013-03-08 06:02:00,
2013-03-08 01:07:00,34.0,12.2,30.23,East,97,3.1,3.1,40,0.00,,,0.00,VWS V14.00,2013-03-08 06:07:00,
2013-03-08 01:12:00,34.2,12.4,30.23,SE,139,2.7,2.7,40,0.00,,,0.00,VWS V14.00,2013-03-08 06:12:00,
2013-03-08 01:17:00,34.3,12.5,30.23,SE,128,0.0,0.0,40,0.00,,,0.00,VWS V14.00,2013-03-08 06:17:00,
2013-03-08 01:22:00,34.3,13.1,30.23,ESE,109,2.2,2.7,41,0.00,,,0.00,VWS V14.00,2013-03-08 06:22:00,
2013-03-08 01:27:00,34.3,13.1,30.23,ESE,109,0.0,0.0,41,0.00,,,0.00,VWS V14.00,2013-03-08 06:27:00,
2013-03-08 01:32:00,34.3,13.1,30.23,East,79,0.0,0.0,41,0.00,,,0.00,VWS V14.00,2013-03-08 06:32:00,
2013-03-08 01:37:00,34.3,13.1,30.23,ESE,111,0.0,0.0,41,0.00,,,0.00,VWS V14.00,2013-03-08 06:37:00,
2013-03-08 01:42:00,34.3,13.1,30.23,East,91,0.0,0.0,41,0.00,,,0.00,VWS V14.00,2013-03-08 06:42:00,
2013-03-08 01:47:00,34.2,12.9,30.23,East,91,0.0,0.0,41,0.00,,,0.00,VWS V14.00,2013-03-08 06:47:00,
2013-03-08 01:52:00,34.2,12.9,30.23,East,91,0.0,0.0,41,0.00,,,0.00,VWS V14.00,2013-03-08 06:52:00,
2013-03-08 01:57:00,34.0,12.8,30.23,ENE,60,0.0,0.0,41,0.00,,,0.00,VWS V14.00,2013-03-08 06:57:00,
2013-03-08 02:02:00,33.8,12.6,30.23,ENE,60,0.0,0.0,41,0.00,,,0.00,VWS V14.00,2013-03-08 07:02:00,
2013-03-08 02:07:00,33.4,12.3,30.23,ENE,65,0.0,0.0,41,0.00,,,0.00,VWS V14.00,2013-03-08 07:07:00,
2013-03-08 02:12:00,33.3,12.1,30.23,ENE,65,0.0,0.0,41,0.00,,,0.00,VWS V14.00,2013-03-08 07:12:00,
2013-03-08 02:17:00,33.3,12.7,30.23,ESE,109,0.0,0.0,42,0.00,,,0.00,VWS V14.00,2013-03-08 07:17:00,
2013-03-08 02:22:00,33.3,12.1,30.23,ESE,112,0.0,0.0,41,0.00,,,0.00,VWS V14.00,2013-03-08 07:22:00,
2013-03-08 02:27:00,33.3,12.1,30.23,East,97,0.0,0.0,41,0.00,,,0.00,VWS V14.00,2013-03-08 07:27:00,
2013-03-08 02:32:00,33.1,12.0,30.23,East,100,0.0,0.0,41,0.00,,,0.00,VWS V14.00,2013-03-08 07:32:00,
2013-03-08 02:37:00,33.1,12.5,30.23,East,88,0.0,0.0,42,0.00,,,0.00,VWS V14.00,2013-03-08 07:37:00,
2013-03-08 02:42:00,33.1,12.5,30.23,East,88,0.0,0.0,42,0.00,,,0.00,VWS V14.00,2013-03-08 07:42:00,
2013-03-08 02:47:00,33.1,12.5,30.23,East,101,0.0,0.0,42,0.00,,,0.00,VWS V14.00,2013-03-08 07:47:00,
2013-03-08 02:52:00,33.1,12.5,30.23,ESE,122,0.0,0.0,42,0.00,,,0.00,VWS V14.00,2013-03-08 07:52:00,
2013-03-08 02:57:00,33.1,12.0,30.23,ESE,122,0.0,0.0,41,0.00,,,0.00,VWS V14.00,2013-03-08 07:57:00,
2013-03-08 03:02:00,32.9,11.8,30.23,East,95,0.0,0.0,41,0.00,,,0.00,VWS V14.00,2013-03-08 08:02:00,
2013-03-08 03:07:00,32.7,11.6,30.23,East,95,0.0,0.0,41,0.00,,,0.00,VWS V14.00,2013-03-08 08:07:00,
2013-03-08 03:12:00,32.5,11.5,30.23,East,95,0.0,0.0,41,0.00,,,0.00,VWS V14.00,2013-03-08 08:12:00,
2013-03-08 03:17:00,32.2,11.7,30.23,East,95,0.0,0.0,42,0.00,,,0.00,VWS V14.00,2013-03-08 08:17:00,
2013-03-08 03:22:00,32.2,11.7,30.23,East,99,0.0,0.0,42,0.00,,,0.00,VWS V14.00,2013-03-08 08:22:00,
2013-03-08 03:27:00,32.2,11.7,30.23,East,80,0.0,0.0,42,0.00,,,0.00,VWS V14.00,2013-03-08 08:27:00,
2013-03-08 03:32:00,32.0,11.5,30.23,East,84,0.0,0.0,42,0.00,,,0.00,VWS V14.00,2013-03-08 08:32:00,
2013-03-08 03:37:00,31.8,11.4,30.23,East,81,0.0,0.0,42,0.00,,,0.00,VWS V14.00,2013-03-08 08:37:00,
2013-03-08 03:42:00,31.5,11.0,30.23,East,81,0.0,0.0,42,0.00,,,0.00,VWS V14.00,2013-03-08 08:42:00,
2013-03-08 03:47:00,31.5,11.0,30.23,ESE,115,0.0,0.0,42,0.00,,,0.00,VWS V14.00,2013-03-08 08:47:00,
2013-03-08 03:52:00,31.5,11.0,30.23,East,94,0.0,0.0,42,0.00,,,0.00,VWS V14.00,2013-03-08 08:52:00,
2013-03-08 03:58:00,31.3,10.9,30.23,East,94,0.0,0.0,42,0.00,,,0.00,VWS V14.00,2013-03-08 08:58:00,
2013-03-08 04:03:00,31.3,10.9,30.23,East,94,0.0,0.0,42,0.00,,,0.00,VWS V14.00,2013-03-08 09:03:00,
2013-03-08 04:08:00,31.3,10.9,30.23,East,94,0.0,0.0,42,0.00,,,0.00,VWS V14.00,2013-03-08 09:08:00,
2013-03-08 04:13:00,31.3,11.4,30.23,East,94,0.0,0.0,43,0.00,,,0.00,VWS V14.00,2013-03-08 09:13:00,
2013-03-08 04:18:00,31.3,11.4,30.23,East,94,0.0,0.0,43,0.00,,,0.00,VWS V14.00,2013-03-08 09:18:00,
2013-03-08 04:23:00,31.1,11.2,30.23,East,94,0.0,0.0,43,0.00,,,0.00,VWS V14.00,2013-03-08 09:23:00,
2013-03-08 04:28:00,31.1,11.2,30.23,East,94,0.0,0.0,43,0.00,,,0.00,VWS V14.00,2013-03-08 09:28:00,
2013-03-08 04:33:00,31.1,11.2,30.23,East,94,0.0,0.0,43,0.00,,,0.00,VWS V14.00,2013-03-08 09:33:00,
2013-03-08 04:38:00,31.1,11.2,30.23,NE,47,2.2,2.2,43,0.00,,,0.00,VWS V14.00,2013-03-08 09:38:00,
2013-03-08 04:43:00,31.1,11.2,30.23,NE,40,0.0,0.0,43,0.00,,,0.00,VWS V14.00,2013-03-08 09:43:00,
2013-03-08 04:48:00,31.1,11.2,30.23,NE,40,0.0,0.0,43,0.00,,,0.00,VWS V14.00,2013-03-08 09:48:00,
2013-03-08 04:53:00,31.1,11.8,30.23,NE,40,0.0,0.0,44,0.00,,,0.00,VWS V14.00,2013-03-08 09:53:00,
2013-03-08 04:58:00,31.1,11.8,30.23,NE,41,0.0,0.0,44,0.00,,,0.00,VWS V14.00,2013-03-08 09:58:00,
2013-03-08 05:03:00,31.3,11.9,30.23,East,97,0.0,0.0,44,0.00,,,0.00,VWS V14.00,2013-03-08 10:03:00,
2013-03-08 05:08:00,31.3,11.9,30.23,East,97,0.0,0.0,44,0.00,,,0.00,VWS V14.00,2013-03-08 10:08:00,
2013-03-08 05:13:00,31.5,12.6,30.23,ESE,119,0.0,0.0,45,0.00,,,0.00,VWS V14.00,2013-03-08 10:13:00,
2013-03-08 05:18:00,31.6,12.8,30.23,ESE,112,0.0,0.0,45,0.00,,,0.00,VWS V14.00,2013-03-08 10:18:00,
2013-03-08 05:23:00,32.0,13.1,30.23,East,96,2.7,2.7,45,0.00,,,0.00,VWS V14.00,2013-03-08 10:23:00,
2013-03-08 05:28:00,32.4,13.4,30.23,East,97,0.0,0.0,45,0.00,,,0.00,VWS V14.00,2013-03-08 10:28:00,
2013-03-08 05:33:00,32.5,13.1,30.23,East,96,0.0,0.0,44,0.00,,,0.00,VWS V14.00,2013-03-08 10:33:00,
2013-03-08 05:38:00,32.5,13.1,30.23,East,96,0.0,0.0,44,0.00,,,0.00,VWS V14.00,2013-03-08 10:38:00,
2013-03-08 05:43:00,32.5,13.1,30.23,ENE,75,0.0,2.7,44,0.00,,,0.00,VWS V14.00,2013-03-08 10:43:00,
2013-03-08 05:48:00,32.9,13.4,30.23,East,91,0.0,0.0,44,0.00,,,0.00,VWS V14.00,2013-03-08 10:48:00,
2013-03-08 05:53:00,33.3,14.2,30.23,ENE,76,2.7,2.7,45,0.00,,,0.00,VWS V14.00,2013-03-08 10:53:00,
2013-03-08 05:58:00,33.4,13.9,30.23,ESE,105,0.0,0.0,44,0.00,,,0.00,VWS V14.00,2013-03-08 10:58:00,
2013-03-08 06:03:00,33.6,13.5,30.26,ESE,105,0.0,0.0,43,0.00,,,0.00,VWS V14.00,2013-03-08 11:03:00,
2013-03-08 06:08:00,33.8,13.7,30.26,East,87,0.0,0.0,43,0.00,,,0.00,VWS V14.00,2013-03-08 11:08:00,
2013-03-08 06:13:00,33.8,13.7,30.26,East,87,0.0,0.0,43,0.00,,,0.00,VWS V14.00,2013-03-08 11:13:00,
2013-03-08 06:18:00,33.8,13.1,30.26,East,86,0.0,0.0,42,0.00,,,0.00,VWS V14.00,2013-03-08 11:18:00,
2013-03-08 06:23:00,34.0,13.3,30.26,ESE,103,0.0,0.0,42,0.00,,,0.00,VWS V14.00,2013-03-08 11:23:00,
2013-03-08 06:29:00,34.0,13.3,30.26,ESE,103,0.0,0.0,42,0.00,,,0.00,VWS V14.00,2013-03-08 11:29:00,
2013-03-08 06:34:00,34.0,12.8,30.26,ESE,103,0.0,0.0,41,0.00,,,0.00,VWS V14.00,2013-03-08 11:34:00,
2013-03-08 06:39:00,34.0,12.8,30.26,ESE,103,0.0,0.0,41,0.00,,,0.00,VWS V14.00,2013-03-08 11:39:00,
2013-03-08 06:44:00,34.0,12.8,30.26,ESE,103,0.0,0.0,41,0.00,,,0.00,VWS V14.00,2013-03-08 11:44:00,
2013-03-08 06:49:00,34.0,13.3,30.26,ESE,103,0.0,0.0,42,0.00,,,0.00,VWS V14.00,2013-03-08 11:49:00,
2013-03-08 06:54:00,34.0,13.3,30.26,ESE,103,0.0,0.0,42,0.00,,,0.00,VWS V14.00,2013-03-08 11:54:00,
2013-03-08 06:59:00,34.0,13.3,30.26,ESE,103,0.0,0.0,42,0.00,,,0.00,VWS V14.00,2013-03-08 11:59:00,
2013-03-08 07:04:00,34.0,13.3,30.26,NNE,29,0.0,2.7,42,0.00,,,0.00,VWS V14.00,2013-03-08 12:04:00,
2013-03-08 07:09:00,34.0,13.3,30.26,NNE,29,0.0,0.0,42,0.00,,,0.00,VWS V14.00,2013-03-08 12:09:00,
2013-03-08 07:14:00,34.0,13.3,30.26,NNE,29,0.0,0.0,42,0.00,,,0.00,VWS V14.00,2013-03-08 12:14:00,
2013-03-08 07:19:00,34.0,13.3,30.26,NNE,29,0.0,0.0,42,0.00,,,0.00,VWS V14.00,2013-03-08 12:19:00,
2013-03-08 07:24:00,33.8,12.6,30.26,NNE,29,0.0,0.0,41,0.00,,,0.00,VWS V14.00,2013-03-08 12:24:00,
2013-03-08 07:29:00,33.8,12.6,30.26,NNE,29,0.0,0.0,41,0.00,,,0.00,VWS V14.00,2013-03-08 12:29:00,
2013-03-08 07:34:00,33.8,12.6,30.26,NNE,29,0.0,0.0,41,0.00,,,0.00,VWS V14.00,2013-03-08 12:34:00,
2013-03-08 07:39:00,33.8,12.6,30.26,NNE,18,0.0,0.0,41,0.00,,,0.00,VWS V14.00,2013-03-08 12:39:00,
2013-03-08 07:44:00,34.0,13.3,30.26,North,2,0.0,0.0,42,0.00,,,0.00,VWS V14.00,2013-03-08 12:44:00,
2013-03-08 07:49:00,34.3,13.1,30.26,North,2,0.0,0.0,41,0.00,,,0.00,VWS V14.00,2013-03-08 12:49:00,
2013-03-08 07:54:00,34.9,13.6,30.26,North,0,3.1,3.1,41,0.00,,,0.00,VWS V14.00,2013-03-08 12:54:00,
2013-03-08 07:59:00,35.1,13.8,30.26,North,353,0.0,0.0,41,0.00,,,0.00,VWS V14.00,2013-03-08 12:59:00,
2013-03-08 08:04:00,35.4,14.1,30.26,NE,54,0.0,0.0,41,0.00,,,0.00,VWS V14.00,2013-03-08 13:04:00,
2013-03-08 08:09:00,35.8,13.8,30.26,SSW,212,0.0,0.0,40,0.00,,,0.00,VWS V14.00,2013-03-08 13:09:00,
2013-03-08 08:14:00,36.9,13.0,30.26,SSW,212,2.2,2.7,37,0.00,,,0.00,VWS V14.00,2013-03-08 13:14:00,
2013-03-08 08:19:00,37.4,13.5,30.26,SSE,151,0.0,0.0,37,0.00,,,0.00,VWS V14.00,2013-03-08 13:19:00,
2013-03-08 08:24:00,37.9,12.7,30.26,South,180,4.9,4.9,35,0.00,,,0.00,VWS V14.00,2013-03-08 13:24:00,
2013-03-08 08:29:00,38.3,11.0,30.26,SW,228,4.0,5.4,32,0.00,,,0.00,VWS V14.00,2013-03-08 13:29:00,
2013-03-08 08:34:00,38.7,10.6,30.26,SW,227,2.7,4.0,31,0.00,,,0.00,VWS V14.00,2013-03-08 13:34:00,
2013-03-08 08:39:00,39.0,11.0,30.26,SSW,207,3.6,3.6,31,0.00,,,0.00,VWS V14.00,2013-03-08 13:39:00,
2013-03-08 08:44:00,39.2,10.4,30.26,SSW,212,3.6,3.6,30,0.00,,,0.00,VWS V14.00,2013-03-08 13:44:00,
2013-03-08 08:49:00,39.4,10.5,30.29,SSW,210,4.0,4.9,30,0.00,,,0.00,VWS V14.00,2013-03-08 13:49:00,
2013-03-08 08:54:00,39.6,9.9,30.29,SW,214,2.7,4.9,29,0.00,,,0.00,VWS V14.00,2013-03-08 13:54:00,
2013-03-08 08:59:00,39.7,10.1,30.29,SSW,198,4.0,5.8,29,0.00,,,0.00,VWS V14.00,2013-03-08 13:59:00,
2013-03-08 09:04:00,39.7,10.1,30.26,SW,224,3.6,6.3,29,0.00,,,0.00,VWS V14.00,2013-03-08 14:04:00,
2013-03-08 09:09:00,39.7,10.1,30.26,SW,214,7.6,7.6,29,0.00,,,0.00,VWS V14.00,2013-03-08 14:09:00,
2013-03-08 09:14:00,40.1,10.4,30.26,SSW,208,3.6,5.8,29,0.00,,,0.00,VWS V14.00,2013-03-08 14:14:00,
2013-03-08 09:19:00,40.3,10.6,30.26,SSW,204,5.8,6.3,29,0.00,,,0.00,VWS V14.00,2013-03-08 14:19:00,
2013-03-08 09:24:00,40.3,10.6,30.26,SE,142,5.4,5.4,29,0.00,,,0.00,VWS V14.00,2013-03-08 14:24:00,
2013-03-08 09:29:00,40.5,10.7,30.26,SSW,205,4.0,4.0,29,0.00,,,0.00,VWS V14.00,2013-03-08 14:29:00,
2013-03-08 09:34:00,40.8,11.0,30.26,SW,232,3.6,4.0,29,0.00,,,0.00,VWS V14.00,2013-03-08 14:34:00,
2013-03-08 09:39:00,41.2,10.6,30.26,WSW,242,3.1,4.0,28,0.00,,,0.00,VWS V14.00,2013-03-08 14:39:00,
2013-03-08 09:44:00,41.2,10.6,30.26,SSW,211,4.9,4.9,28,0.00,,,0.00,VWS V14.00,2013-03-08 14:44:00,
2013-03-08 09:49:00,41.4,10.7,30.26,SSW,210,4.0,5.8,28,0.00,,,0.00,VWS V14.00,2013-03-08 14:49:00,
2013-03-08 09:54:00,41.9,11.2,30.26,SW,232,5.4,7.6,28,0.00,,,0.00,VWS V14.00,2013-03-08 14:54:00,
2013-03-08 09:59:00,41.7,9.4,30.26,SSE,167,2.2,3.1,26,0.00,,,0.00,VWS V14.00,2013-03-08 14:59:00,
2013-03-08 10:04:00,41.9,9.5,30.26,SW,220,4.0,4.0,26,0.00,,,0.00,VWS V14.00,2013-03-08 15:04:00,
2013-03-08 10:09:00,42.3,9.8,30.26,SSW,212,3.1,4.9,26,0.00,,,0.00,VWS V14.00,2013-03-08 15:09:00,
2013-03-08 10:14:00,42.8,9.4,30.26,SE,141,4.9,4.9,25,0.00,,,0.00,VWS V14.00,2013-03-08 15:14:00,
2013-03-08 10:19:00,43.5,8.2,30.26,North,353,3.6,3.6,23,0.00,,,0.00,VWS V14.00,2013-03-08 15:19:00,
2013-03-08 10:24:00,43.7,8.3,30.26,South,191,5.4,5.4,23,0.00,,,0.00,VWS V14.00,2013-03-08 15:24:00,
2013-03-08 10:29:00,43.5,8.2,30.26,SW,232,6.3,6.3,23,0.00,,,0.00,VWS V14.00,2013-03-08 15:29:00,
2013-03-08 10:35:00,43.9,8.5,30.26,SW,222,3.1,3.1,23,0.00,,,0.00,VWS V14.00,2013-03-08 15:35:00,
2013-03-08 10:40:00,44.6,8.1,30.26,SW,232,6.3,6.3,22,0.00,,,0.00,VWS V14.00,2013-03-08 15:40:00,
2013-03-08 10:45:00,44.6,8.1,30.26,SSW,208,0.0,0.0,22,0.00,,,0.00,VWS V14.00,2013-03-08 15:45:00,
2013-03-08 10:50:00,45.1,6.5,30.26,SW,228,3.6,3.6,20,0.00,,,0.00,VWS V14.00,2013-03-08 15:50:00,
2013-03-08 10:55:00,45.3,6.6,30.26,SW,216,3.6,3.6,20,0.00,,,0.00,VWS V14.00,2013-03-08 15:55:00,
2013-03-08 11:00:00,45.3,6.6,30.26,SW,218,2.7,3.1,20,0.00,,,0.00,VWS V14.00,2013-03-08 16:00:00,
2013-03-08 11:05:00,45.7,6.9,30.26,SSW,213,4.9,5.8,20,0.00,,,0.00,VWS V14.00,2013-03-08 16:05:00,
2013-03-08 11:10:00,45.3,6.6,30.26,West,260,0.0,3.6,20,0.00,,,0.00,VWS V14.00,2013-03-08 16:10:00,
2013-03-08 11:15:00,46.2,7.4,30.26,SW,229,4.0,5.4,20,0.00,,,0.00,VWS V14.00,2013-03-08 16:15:00,
2013-03-08 11:20:00,46.9,6.8,30.23,East,84,5.4,6.3,19,0.00,,,0.00,VWS V14.00,2013-03-08 16:20:00,
2013-03-08 11:25:00,47.3,7.1,30.23,SE,135,2.7,6.3,19,0.00,,,0.00,VWS V14.00,2013-03-08 16:25:00,
2013-03-08 11:30:00,47.5,7.3,30.23,South,170,2.7,4.0,19,0.00,,,0.00,VWS V14.00,2013-03-08 16:30:00,
2013-03-08 11:35:00,48.0,7.7,30.20,NE,45,2.7,3.1,19,0.00,,,0.00,VWS V14.00,2013-03-08 16:35:00,
2013-03-08 11:40:00,48.6,8.2,30.20,SW,236,4.0,8.7,19,0.00,,,0.00,VWS V14.00,2013-03-08 16:40:00,
2013-03-08 11:45:00,48.7,8.3,30.20,WSW,249,2.7,2.7,19,0.00,,,0.00,VWS V14.00,2013-03-08 16:45:00,
2013-03-08 11:50:00,49.3,8.8,30.17,WSW,246,4.0,4.0,19,0.00,,,0.00,VWS V14.00,2013-03-08 16:50:00,
2013-03-08 11:55:00,49.1,4.9,30.17,SSW,213,4.0,4.9,16,0.00,,,0.00,VWS V14.00,2013-03-08 16:55:00,
2013-03-08 12:00:00,49.3,8.8,30.17,SSE,156,2.7,3.6,19,0.00,,,0.00,VWS V14.00,2013-03-08 17:00:00,
2013-03-08 12:05:00,50.0,9.4,30.17,South,189,3.1,4.0,19,0.00,,,0.00,VWS V14.00,2013-03-08 17:05:00,
2013-03-08 12:10:00,50.4,5.9,30.17,South,184,5.8,5.8,16,0.00,,,0.00,VWS V14.00,2013-03-08 17:10:00,
2013-03-08 12:15:00,50.5,6.0,30.17,South,175,3.6,3.6,16,0.00,,,0.00,VWS V14.00,2013-03-08 17:15:00,
2013-03-08 12:20:00,50.5,6.0,30.14,ESE,105,4.0,6.3,16,0.00,,,0.00,VWS V14.00,2013-03-08 17:20:00,
2013-03-08 12:25:00,50.4,5.9,30.14,SW,220,3.6,5.4,16,0.00,,,0.00,VWS V14.00,2013-03-08 17:25:00,
2013-03-08 12:30:00,50.9,6.3,30.14,SSW,211,2.7,3.6,16,0.00,,,0.00,VWS V14.00,2013-03-08 17:30:00,
2013-03-08 12:35:00,51.4,6.8,30.14,SSW,195,2.7,2.7,16,0.00,,,0.00,VWS V14.00,2013-03-08 17:35:00,
2013-03-08 12:40:00,51.4,6.8,30.14,SSW,193,4.0,5.4,16,0.00,,,0.00,VWS V14.00,2013-03-08 17:40:00,
2013-03-08 12:45:00,50.9,6.3,30.14,SW,226,3.6,4.0,16,0.00,,,0.00,VWS V14.00,2013-03-08 17:45:00,
2013-03-08 12:50:00,51.1,6.5,30.14,SW,232,2.7,3.1,16,0.00,,,0.00,VWS V14.00,2013-03-08 17:50:00,
2013-03-08 12:55:00,51.3,6.6,30.14,East,90,3.1,3.6,16,0.00,,,0.00,VWS V14.00,2013-03-08 17:55:00,
2013-03-08 13:01:00,51.8,7.1,30.14,South,171,2.2,2.2,16,0.00,,,0.00,VWS V14.00,2013-03-08 18:01:00,
2013-03-08 13:06:00,51.6,6.9,30.11,SW,216,3.6,3.6,16,0.00,,,0.00,VWS V14.00,2013-03-08 18:06:00,
2013-03-08 13:11:00,51.8,7.1,30.11,South,187,2.7,3.6,16,0.00,,,0.00,VWS V14.00,2013-03-08 18:11:00,
2013-03-08 13:16:00,52.5,7.6,30.11,SE,124,3.6,3.6,16,0.00,,,0.00,VWS V14.00,2013-03-08 18:16:00,
2013-03-08 13:21:00,53.1,8.1,30.11,SSW,197,3.6,5.4,16,0.00,,,0.00,VWS V14.00,2013-03-08 18:21:00,
2013-03-08 13:26:00,53.4,8.4,30.11,SSE,153,5.4,5.8,16,0.00,,,0.00,VWS V14.00,2013-03-08 18:26:00,
2013-03-08 13:31:00,52.7,7.8,30.11,SSW,206,4.0,5.4,16,0.00,,,0.00,VWS V14.00,2013-03-08 18:31:00,
2013-03-08 13:36:00,52.2,7.3,30.11,South,183,4.9,5.4,16,0.00,,,0.00,VWS V14.00,2013-03-08 18:36:00,
2013-03-08 13:41:00,53.1,8.1,30.11,SE,145,2.7,4.0,16,0.00,,,0.00,VWS V14.00,2013-03-08 18:41:00,
2013-03-08 13:46:00,53.4,8.4,30.11,SSW,199,5.4,5.4,16,0.00,,,0.00,VWS V14.00,2013-03-08 18:46:00,
2013-03-08 13:51:00,53.6,7.1,30.08,SSW,198,2.7,3.6,15,0.00,,,0.00,VWS V14.00,2013-03-08 18:51:00,
2013-03-08 13:56:00,54.3,7.7,30.08,SSE,158,2.7,3.6,15,0.00,,,0.00,VWS V14.00,2013-03-08 18:56:00,
2013-03-08 14:01:00,54.1,7.5,30.08,SW,233,2.7,3.6,15,0.00,,,0.00,VWS V14.00,2013-03-08 19:01:00,
2013-03-08 14:06:00,54.3,7.7,30.08,SSW,205,2.7,3.1,15,0.00,,,0.00,VWS V14.00,2013-03-08 19:06:00,
2013-03-08 14:11:00,54.7,8.0,30.08,SE,143,2.7,2.7,15,0.00,,,0.00,VWS V14.00,2013-03-08 19:11:00,
2013-03-08 14:16:00,54.9,8.1,30.08,SSE,165,2.7,4.9,15,0.00,,,0.00,VWS V14.00,2013-03-08 19:16:00,
2013-03-08 14:21:00,54.9,8.1,30.08,WSW,238,3.1,5.4,15,0.00,,,0.00,VWS V14.00,2013-03-08 19:21:00,
2013-03-08 14:26:00,54.9,8.1,30.08,North,357,3.1,8.3,15,0.00,,,0.00,VWS V14.00,2013-03-08 19:26:00,
2013-03-08 14:31:00,54.9,8.1,30.08,South,190,4.0,5.4,15,0.00,,,0.00,VWS V14.00,2013-03-08 19:31:00,
2013-03-08 14:36:00,54.5,7.8,30.08,SSW,195,3.6,4.0,15,0.00,,,0.00,VWS V14.00,2013-03-08 19:36:00,
2013-03-08 14:41:00,54.7,8.0,30.08,SW,234,2.2,3.6,15,0.00,,,0.00,VWS V14.00,2013-03-08 19:41:00,
2013-03-08 14:46:00,54.5,7.8,30.08,SSW,206,4.0,4.0,15,0.00,,,0.00,VWS V14.00,2013-03-08 19:46:00,
2013-03-08 14:51:00,53.8,7.2,30.08,SW,225,5.4,5.4,15,0.00,,,0.00,VWS V14.00,2013-03-08 19:51:00,
2013-03-08 14:56:00,54.5,7.8,30.08,South,182,2.7,4.0,15,0.00,,,0.00,VWS V14.00,2013-03-08 19:56:00,
2013-03-08 15:01:00,54.7,8.0,30.08,South,190,3.6,3.6,15,0.00,,,0.00,VWS V14.00,2013-03-08 20:01:00,
2013-03-08 15:06:00,54.9,8.1,30.08,South,172,3.6,3.6,15,0.00,,,0.00,VWS V14.00,2013-03-08 20:06:00,
2013-03-08 15:11:00,54.5,7.8,30.08,SW,230,5.8,5.8,15,0.00,,,0.00,VWS V14.00,2013-03-08 20:11:00,
2013-03-08 15:16:00,54.3,7.7,30.08,ESE,119,2.7,4.9,15,0.00,,,0.00,VWS V14.00,2013-03-08 20:16:00,
2013-03-08 15:21:00,54.3,7.7,30.11,SSE,154,3.1,4.0,15,0.00,,,0.00,VWS V14.00,2013-03-08 20:21:00,
2013-03-08 15:26:00,54.1,7.5,30.11,SSW,211,3.6,4.0,15,0.00,,,0.00,VWS V14.00,2013-03-08 20:26:00,
2013-03-08 15:31:00,54.0,7.4,30.11,SSW,198,3.6,3.6,15,0.00,,,0.00,VWS V14.00,2013-03-08 20:31:00,
2013-03-08 15:36:00,54.1,7.5,30.11,SSW,193,4.0,4.0,15,0.00,,,0.00,VWS V14.00,2013-03-08 20:36:00,
2013-03-08 15:41:00,54.1,7.5,30.11,South,172,3.1,3.1,15,0.00,,,0.00,VWS V14.00,2013-03-08 20:41:00,
2013-03-08 15:46:00,53.6,7.1,30.11,SE,133,6.3,6.3,15,0.00,,,0.00,VWS V14.00,2013-03-08 20:46:00,
2013-03-08 15:52:00,53.1,8.1,30.11,SW,230,3.1,3.1,16,0.00,,,0.00,VWS V14.00,2013-03-08 20:52:00,
2013-03-08 15:57:00,52.7,7.8,30.11,SW,230,2.7,2.7,16,0.00,,,0.00,VWS V14.00,2013-03-08 20:57:00,
2013-03-08 16:02:00,52.7,7.8,30.11,SSW,211,3.6,3.6,16,0.00,,,0.00,VWS V14.00,2013-03-08 21:02:00,
2013-03-08 16:07:00,52.5,7.6,30.14,SSW,205,2.7,3.6,16,0.00,,,0.00,VWS V14.00,2013-03-08 21:07:00,
2013-03-08 16:12:00,52.3,7.5,30.14,SW,220,3.6,3.6,16,0.00,,,0.00,VWS V14.00,2013-03-08 21:12:00,
2013-03-08 16:17:00,52.2,7.3,30.14,SE,135,4.0,4.9,16,0.00,,,0.00,VWS V14.00,2013-03-08 21:17:00,
2013-03-08 16:22:00,52.0,7.2,30.14,SE,133,2.7,4.0,16,0.00,,,0.00,VWS V14.00,2013-03-08 21:22:00,
2013-03-08 16:27:00,51.6,6.9,30.14,SSE,164,2.7,2.7,16,0.00,,,0.00,VWS V14.00,2013-03-08 21:27:00,
2013-03-08 16:32:00,51.3,6.6,30.14,South,187,0.0,3.1,16,0.00,,,0.00,VWS V14.00,2013-03-08 21:32:00,
2013-03-08 16:37:00,50.9,6.3,30.14,SE,143,4.0,4.0,16,0.00,,,0.00,VWS V14.00,2013-03-08 21:37:00,
2013-03-08 16:42:00,50.7,6.2,30.14,SE,133,3.6,3.6,16,0.00,,,0.00,VWS V14.00,2013-03-08 21:42:00,
2013-03-08 16:47:00,50.5,6.0,30.14,SSW,192,2.2,3.6,16,0.00,,,0.00,VWS V14.00,2013-03-08 21:47:00,
2013-03-08 16:52:00,50.5,6.0,30.17,South,185,3.1,4.5,16,0.00,,,0.00,VWS V14.00,2013-03-08 21:52:00,
2013-03-08 16:57:00,50.2,5.7,30.17,SE,138,4.9,5.4,16,0.00,,,0.00,VWS V14.00,2013-03-08 21:57:00,
2013-03-08 17:02:00,50.0,5.6,30.17,SSW,204,0.0,0.0,16,0.00,,,0.00,VWS V14.00,2013-03-08 22:02:00,
2013-03-08 17:07:00,50.0,5.6,30.17,SSW,200,2.7,6.3,16,0.00,,,0.00,VWS V14.00,2013-03-08 22:07:00,
2013-03-08 17:12:00,49.6,5.3,30.17,East,95,3.6,5.8,16,0.00,,,0.00,VWS V14.00,2013-03-08 22:12:00,
2013-03-08 17:17:00,49.5,5.2,30.17,South,181,2.7,4.0,16,0.00,,,0.00,VWS V14.00,2013-03-08 22:17:00,
2013-03-08 17:22:00,49.3,5.0,30.17,SSW,211,4.9,5.4,16,0.00,,,0.00,VWS V14.00,2013-03-08 22:22:00,
2013-03-08 17:27:00,48.9,4.7,30.17,SW,219,2.2,3.1,16,0.00,,,0.00,VWS V14.00,2013-03-08 22:27:00,
2013-03-08 17:32:00,48.9,4.7,30.17,SSW,207,2.7,3.1,16,0.00,,,0.00,VWS V14.00,2013-03-08 22:32:00,
2013-03-08 17:37:00,48.7,4.6,30.17,WSW,245,3.6,3.6,16,0.00,,,0.00,VWS V14.00,2013-03-08 22:37:00,
2013-03-08 17:42:00,48.6,4.4,30.17,SSW,192,3.1,3.1,16,0.00,,,0.00,VWS V14.00,2013-03-08 22:42:00,
2013-03-08 17:47:00,48.4,4.3,30.17,SE,137,4.0,4.0,16,0.00,,,0.00,VWS V14.00,2013-03-08 22:47:00,
2013-03-08 17:53:00,48.0,5.3,30.17,SW,232,0.0,0.0,17,0.00,,,0.00,VWS V14.00,2013-03-08 22:53:00,
2013-03-08 17:58:00,47.7,5.0,30.17,NNW,329,2.7,3.1,17,0.00,,,0.00,VWS V14.00,2013-03-08 22:58:00,
2013-03-08 18:03:00,47.5,4.8,30.17,WSW,239,4.0,6.3,17,0.00,,,0.00,VWS V14.00,2013-03-08 23:03:00,
2013-03-08 18:08:00,47.1,4.6,30.17,SW,218,0.0,0.0,17,0.00,,,0.00,VWS V14.00,2013-03-08 23:08:00,
2013-03-08 18:13:00,47.1,4.6,30.17,South,190,0.0,2.7,17,0.00,,,0.00,VWS V14.00,2013-03-08 23:13:00,
2013-03-08 18:18:00,46.8,4.3,30.20,South,173,0.0,0.0,17,0.00,,,0.00,VWS V14.00,2013-03-08 23:18:00,
2013-03-08 18:23:00,46.4,6.4,30.20,SE,144,0.0,2.2,19,0.00,,,0.00,VWS V14.00,2013-03-08 23:23:00,
2013-03-08 18:28:00,46.0,7.2,30.20,South,179,2.2,2.7,20,0.00,,,0.00,VWS V14.00,2013-03-08 23:28:00,
2013-03-08 18:33:00,45.7,6.9,30.20,SW,228,0.0,0.0,20,0.00,,,0.00,VWS V14.00,2013-03-08 23:33:00,
2013-03-08 18:38:00,45.5,6.8,30.20,West,279,3.1,3.1,20,0.00,,,0.00,VWS V14.00,2013-03-08 23:38:00,
2013-03-08 18:43:00,45.5,6.8,30.20,SW,218,0.0,2.7,20,0.00,,,0.00,VWS V14.00,2013-03-08 23:43:00,
2013-03-08 18:48:00,45.5,6.8,30.20,WSW,255,3.6,3.6,20,0.00,,,0.00,VWS V14.00,2013-03-08 23:48:00,
2013-03-08 18:53:00,45.5,6.8,30.20,SW,236,2.2,3.1,20,0.00,,,0.00,VWS V14.00,2013-03-08 23:53:00,
2013-03-08 18:58:00,45.3,6.6,30.20,South,170,2.7,4.9,20,0.00,,,0.00,VWS V14.00,2013-03-08 23:58:00,
2013-03-08 19:03:00,45.1,6.5,30.20,WSW,252,3.6,3.6,20,0.00,,,0.00,VWS V14.00,2013-03-09 00:03:00,
2013-03-08 19:08:00,44.8,6.2,30.20,ENE,65,3.6,3.6,20,0.00,,,0.00,VWS V14.00,2013-03-09 00:08:00,
2013-03-08 19:13:00,44.8,6.2,30.20,SW,215,0.0,0.0,20,0.00,,,0.00,VWS V14.00,2013-03-09 00:13:00,
2013-03-08 19:18:00,44.8,6.2,30.20,SW,234,4.0,4.0,20,0.00,,,0.00,VWS V14.00,2013-03-09 00:18:00,
2013-03-08 19:23:00,44.8,6.2,30.20,SW,234,2.7,2.7,20,0.00,,,0.00,VWS V14.00,2013-03-09 00:23:00,
2013-03-08 19:28:00,44.6,6.0,30.20,SSW,207,3.1,3.1,20,0.00,,,0.00,VWS V14.00,2013-03-09 00:28:00,
2013-03-08 19:33:00,44.4,5.9,30.23,SW,224,3.1,3.6,20,0.00,,,0.00,VWS V14.00,2013-03-09 00:33:00,
2013-03-08 19:38:00,44.4,5.9,30.23,SW,219,3.1,3.1,20,0.00,,,0.00,VWS V14.00,2013-03-09 00:38:00,
2013-03-08 19:43:00,44.4,5.9,30.23,SW,228,3.1,3.1,20,0.00,,,0.00,VWS V14.00,2013-03-09 00:43:00,
2013-03-08 19:48:00,44.2,5.7,30.23,SSW,194,4.0,4.0,20,0.00,,,0.00,VWS V14.00,2013-03-09 00:48:00,
2013-03-08 19:53:00,44.4,5.9,30.23,SSW,208,3.1,3.1,20,0.00,,,0.00,VWS V14.00,2013-03-09 00:53:00,
2013-03-08 19:58:00,44.2,5.7,30.23,SW,219,4.9,4.9,20,0.00,,,0.00,VWS V14.00,2013-03-09 00:58:00,
2013-03-08 20:03:00,44.2,5.7,30.23,SW,222,3.6,4.0,20,0.00,,,0.00,VWS V14.00,2013-03-09 01:03:00,
2013-03-08 20:09:00,44.1,8.6,30.23,South,191,4.0,4.0,23,0.00,,,0.00,VWS V14.00,2013-03-09 01:09:00,
2013-03-08 20:14:00,43.7,8.3,30.23,SW,216,0.0,2.2,23,0.00,,,0.00,VWS V14.00,2013-03-09 01:14:00,
2013-03-08 20:19:00,43.7,8.3,30.23,South,185,2.7,2.7,23,0.00,,,0.00,VWS V14.00,2013-03-09 01:19:00,
2013-03-08 20:24:00,43.5,8.2,30.23,SSW,205,3.6,3.6,23,0.00,,,0.00,VWS V14.00,2013-03-09 01:24:00,
2013-03-08 20:29:00,43.5,8.2,30.23,SW,219,3.1,4.0,23,0.00,,,0.00,VWS V14.00,2013-03-09 01:29:00,
2013-03-08 20:34:00,43.5,8.2,30.23,SW,217,2.7,4.0,23,0.00,,,0.00,VWS V14.00,2013-03-09 01:34:00,
2013-03-08 20:39:00,43.3,8.0,30.23,SW,230,2.7,4.0,23,0.00,,,0.00,VWS V14.00,2013-03-09 01:39:00,
2013-03-08 20:44:00,43.3,8.0,30.23,SSW,201,3.1,3.1,23,0.00,,,0.00,VWS V14.00,2013-03-09 01:44:00,
2013-03-08 20:49:00,43.0,7.7,30.23,WSW,251,2.2,3.6,23,0.00,,,0.00,VWS V14.00,2013-03-09 01:49:00,
2013-03-08 20:54:00,43.0,7.7,30.23,SW,215,2.7,2.7,23,0.00,,,0.00,VWS V14.00,2013-03-09 01:54:00,
2013-03-08 20:59:00,42.8,9.4,30.23,SSW,201,2.7,3.6,25,0.00,,,0.00,VWS V14.00,2013-03-09 01:59:00,
2013-03-08 21:04:00,42.8,9.4,30.26,SW,217,2.7,2.7,25,0.00,,,0.00,VWS V14.00,2013-03-09 02:04:00,
2013-03-08 21:09:00,42.4,10.0,30.26,SW,227,2.2,2.2,26,0.00,,,0.00,VWS V14.00,2013-03-09 02:09:00,
2013-03-08 21:14:00,42.3,9.8,30.26,SSW,212,0.0,0.0,26,0.00,,,0.00,VWS V14.00,2013-03-09 02:14:00,
2013-03-08 21:19:00,42.1,9.7,30.26,SW,220,0.0,0.0,26,0.00,,,0.00,VWS V14.00,2013-03-09 02:19:00,
2013-03-08 21:24:00,42.1,9.7,30.26,SSW,210,0.0,0.0,26,0.00,,,0.00,VWS V14.00,2013-03-09 02:24:00,
2013-03-08 21:29:00,41.7,9.4,30.26,South,189,3.6,3.6,26,0.00,,,0.00,VWS V14.00,2013-03-09 02:29:00,
2013-03-08 21:34:00,41.5,9.2,30.26,WSW,257,0.0,0.0,26,0.00,,,0.00,VWS V14.00,2013-03-09 02:34:00,
2013-03-08 21:39:00,41.4,9.1,30.26,NW,312,0.0,0.0,26,0.00,,,0.00,VWS V14.00,2013-03-09 02:39:00,
2013-03-08 21:44:00,41.0,10.4,30.26,SW,221,0.0,0.0,28,0.00,,,0.00,VWS V14.00,2013-03-09 02:44:00,
2013-03-08 21:49:00,40.8,10.2,30.26,SSW,213,0.0,0.0,28,0.00,,,0.00,VWS V14.00,2013-03-09 02:49:00,
2013-03-08 21:54:00,40.6,10.1,30.26,SSW,207,2.2,3.1,28,0.00,,,0.00,VWS V14.00,2013-03-09 02:54:00,
2013-03-08 21:59:00,40.6,10.1,30.26,SSW,212,0.0,0.0,28,0.00,,,0.00,VWS V14.00,2013-03-09 02:59:00,
2013-03-08 22:04:00,40.6,10.9,30.29,SSW,213,0.0,0.0,29,0.00,,,0.00,VWS V14.00,2013-03-09 03:04:00,
2013-03-08 22:09:00,40.6,10.9,30.29,SW,217,0.0,0.0,29,0.00,,,0.00,VWS V14.00,2013-03-09 03:09:00,
2013-03-08 22:14:00,40.6,10.9,30.29,SW,217,0.0,0.0,29,0.00,,,0.00,VWS V14.00,2013-03-09 03:14:00,
2013-03-08 22:19:00,40.6,10.9,30.29,SW,217,0.0,0.0,29,0.00,,,0.00,VWS V14.00,2013-03-09 03:19:00,
2013-03-08 22:24:00,40.6,10.9,30.29,SW,223,2.7,2.7,29,0.00,,,0.00,VWS V14.00,2013-03-09 03:24:00,
2013-03-08 22:29:00,40.5,10.7,30.29,SW,215,2.2,2.7,29,0.00,,,0.00,VWS V14.00,2013-03-09 03:29:00,
2013-03-08 22:34:00,40.5,10.7,30.29,SSW,205,0.0,0.0,29,0.00,,,0.00,VWS V14.00,2013-03-09 03:34:00,
2013-03-08 22:39:00,40.5,10.7,30.29,SSW,211,0.0,0.0,29,0.00,,,0.00,VWS V14.00,2013-03-09 03:39:00,
2013-03-08 22:44:00,40.3,10.6,30.29,SSW,208,0.0,0.0,29,0.00,,,0.00,VWS V14.00,2013-03-09 03:44:00,
2013-03-08 22:49:00,40.1,10.4,30.29,SSW,208,0.0,0.0,29,0.00,,,0.00,VWS V14.00,2013-03-09 03:49:00,
2013-03-08 22:54:00,39.9,10.2,30.29,SSW,209,0.0,0.0,29,0.00,,,0.00,VWS V14.00,2013-03-09 03:54:00,
2013-03-08 22:59:00,39.7,10.1,30.29,SSW,209,0.0,0.0,29,0.00,,,0.00,VWS V14.00,2013-03-09 03:59:00,
2013-03-08 23:05:00,39.6,9.9,30.29,SSW,209,0.0,0.0,29,0.00,,,0.00,VWS V14.00,2013-03-09 04:05:00,
2013-03-08 23:10:00,39.4,9.8,30.29,SSW,212,2.2,3.1,29,0.00,,,0.00,VWS V14.00,2013-03-09 04:10:00,
2013-03-08 23:15:00,39.4,9.8,30.29,SW,233,4.0,4.0,29,0.00,,,0.00,VWS V14.00,2013-03-09 04:15:00,
2013-03-08 23:20:00,39.6,9.9,30.29,SW,231,0.0,0.0,29,0.00,,,0.00,VWS V14.00,2013-03-09 04:20:00,
2013-03-08 23:25:00,39.6,9.9,30.29,SW,224,0.0,0.0,29,0.00,,,0.00,VWS V14.00,2013-03-09 04:25:00,
2013-03-08 23:30:00,39.4,9.8,30.29,SW,215,0.0,0.0,29,0.00,,,0.00,VWS V14.00,2013-03-09 04:30:00,
2013-03-08 23:35:00,39.4,9.8,30.29,SSW,205,0.0,0.0,29,0.00,,,0.00,VWS V14.00,2013-03-09 04:35:00,
2013-03-08 23:40:00,39.2,10.4,30.29,SW,217,0.0,0.0,30,0.00,,,0.00,VWS V14.00,2013-03-09 04:40:00,
2013-03-08 23:45:00,39.2,10.4,30.29,SW,217,0.0,0.0,30,0.00,,,0.00,VWS V14.00,2013-03-09 04:45:00,
2013-03-08 23:50:00,39.0,10.2,30.29,SW,217,0.0,0.0,30,0.00,,,0.00,VWS V14.00,2013-03-09 04:50:00,
2013-03-08 23:55:00,38.8,10.1,30.29,SW,217,0.0,0.0,30,0.00,,,0.00,VWS V14.00,2013-03-09 04:55:00,